COSMOS 2251 DEB, 35475

Orbit data source: Space-Track

COSMOS 2251 DEB, 35475 is space debris in LEO originally from a launch on Wed, 16 Jun 1993 UTC launched from the Plesetsk Missile And Space Complex (PKMTR). The debris from Iridium 33, an American commercial communications satellite, has been tracked extensively since its accidental collision with the defunct Russian satellite Cosmos 2251 in 2009. This event, occurring at high speed in low Earth orbit (LEO), generated thousands of pieces of space debris, significantly increasing the risk of further collisions. The Iridium 33 debris cloud has impacted space traffic management and orbital debris mitigation strategies, making it a subject of ongoing study in space situational awareness.

Loading next visibility...
Identifier
35475, 1993-036ALV
Orbit
LEO
Country
Flag of CISCIS
Related business
Manufacturer
Unknown
Mission
Spacecraft
Bus & Motor
Unknown
Mass
Unknown
Launch date (UTC)
1993-06-16 (33 years ago)
Launch vehicle
Unknown
Launch site
Plesetsk Missile And Space Complex (PKMTR)
Object type
Payload
Rocket body
Debris
Shape & HBR
Unknown shape, 0.1 m
Radar Cross Section
Small (<0.1 m²)

Expand to show TLE details & history
Last TLE update: 17 hours ago

TLE from 17 hours ago
0 COSMOS 2251 DEB
1 35475U 93036ALV 26236.10620240  .00007611  00000-0  11407-2 0  9999
2 35475  74.0210  29.9734 0019842  42.6903 317.5808 14.74645195693615
Epoch: 2026-08-24T02:32Z
TLE epoch observation values (Epoch: 2026-08-24T02:32:55.887Z)
Latitude
0.00003°
Longitude
19.34788°
Altitude
638.656 km
Speed
7.544 km/s
True Right ascension
01h 59m 53s
True Declination
0° 00' 00"
Sunlit
Object was in full shadow at epoch
Visualization orbit readout
Latitude
Unknown
Longitude
Unknown
Altitude
Unknown
Speed
Unknown
Apparent Right ascension
Unknown
Apparent Declination
Unknown
Sunlit
N/A
Visualization observer readout
Local Sidereal Time
10:22:29
Azimuth
Unknown
Elevation
Unknown
Doppler factor
Unknown
Orbital elements
Apogee altitude
657.794 km
Perigee altitude
629.927 km
Semi-major axis
7,021.998 km
Eccentricity
0.00198
Inclination
74.021°
RAAN
29.9734°
Arg. of periapsis
42.6903°
True anomaly
317.42714°
Mean anomaly
317.5808°
Eccentric anomaly
317.504°
Mean motion
3.68852 °/min
Orbital period
97.6 mins
BSTAR
0.0011407
Loading maneuver chart data...
Computing Atmospheric mass density...

Documentation

Showing up to 5 results
|